When you browse on this site, cookies collect data to enhance your experience and personalize the content and advertising you see.
Visit our Privacy Policy to learn more. By continuing to use the site, you agree to this use of cookies and data.
  • In Romania
  • List of Countries
  • For 7 days
  • Water Temperature
  • Weather Map
  • Weather Widgets
  • user-avatar
    Login

    Hourly Weather Newcastle

    Today, 23 October, Wednesday

    Time Temperature Precipitation Wind Pressure Humidity
    00:00 +13°C° 0 mm 3 mps 767 mmHg 94%
    01:00 +14°C° 0 mm 2 mps 766 mmHg 95%
    02:00 +14°C° 0 mm 2 mps 766 mmHg 95%
    03:00 +13°C° 0 mm 2 mps 766 mmHg 96%
    04:00 +13°C° 0 mm 2 mps 766 mmHg 96%
    05:00 +14°C° 0 mm 2 mps 766 mmHg 93%
    06:00 +16°C° 0 mm 2 mps 767 mmHg 89%
    07:00 +17°C° 0 mm 2 mps 767 mmHg 85%
    08:00 +20°C° 0 mm 2 mps 767 mmHg 73%
    09:00 +23°C° 0 mm 2 mps 766 mmHg 60%
    10:00 +26°C° 0 mm 2 mps 766 mmHg 48%
    11:00 +28°C° 0 mm 2 mps 765 mmHg 44%
    12:00 +29°C° 0 mm 3 mps 765 mmHg 41%
    13:00 +30°C° 0 mm 4 mps 764 mmHg 37%
    14:00 +30°C° 0 mm 5 mps 763 mmHg 40%
    15:00 +29°C° 0 mm 5 mps 763 mmHg 43%
    16:00 +28°C° 0 mm 6 mps 763 mmHg 45%
    17:00 +26°C° 0.1 mm 5 mps 763 mmHg 55%
    18:00 +22°C° 0.1 mm 4 mps 763 mmHg 65%
    19:00 +20°C° 0.1 mm 4 mps 763 mmHg 74%
    20:00 +20°C° 0 mm 3 mps 764 mmHg 73%
    21:00 +19°C° 0 mm 3 mps 764 mmHg 73%
    22:00 +19°C° 0 mm 2 mps 764 mmHg 72%
    23:00 +18°C° 0 mm 2 mps 763 mmHg 73%

    Tomorrow, 24 October, Thursday

    Time Temperature Precipitation Wind Pressure Humidity
    00:00 +18°C° 0 mm 2 mps 763 mmHg 75%
    01:00 +17°C° 0 mm 2 mps 762 mmHg 76%
    02:00 +17°C° 0 mm 2 mps 762 mmHg 76%
    03:00 +17°C° 0 mm 2 mps 762 mmHg 76%
    04:00 +16°C° 0 mm 2 mps 762 mmHg 76%
    05:00 +18°C° 0 mm 2 mps 762 mmHg 69%
    06:00 +19°C° 0 mm 2 mps 763 mmHg 63%
    07:00 +21°C° 0 mm 2 mps 763 mmHg 57%
    08:00 +24°C° 0 mm 2 mps 763 mmHg 50%
    09:00 +27°C° 0 mm 2 mps 763 mmHg 42%
    10:00 +30°C° 0 mm 2 mps 763 mmHg 35%
    11:00 +31°C° 0 mm 2 mps 762 mmHg 33%
    12:00 +32°C° 0 mm 2 mps 762 mmHg 30%
    13:00 +33°C° 0 mm 3 mps 761 mmHg 28%
    14:00 +30°C° 0 mm 3 mps 761 mmHg 35%
    15:00 +28°C° 0 mm 3 mps 761 mmHg 43%
    16:00 +26°C° 0 mm 3 mps 760 mmHg 51%
    17:00 +25°C° 0 mm 2 mps 761 mmHg 55%
    18:00 +23°C° 0 mm 2 mps 761 mmHg 59%
    19:00 +21°C° 0 mm 2 mps 762 mmHg 64%
    20:00 +21°C° 0 mm 2 mps 762 mmHg 64%
    21:00 +20°C° 0 mm 2 mps 762 mmHg 64%
    22:00 +20°C° 0 mm 3 mps 762 mmHg 64%
    23:00 +19°C° 0 mm 3 mps 761 mmHg 65%

    Day after tomorrow, 25 October, Friday

    Time Temperature Precipitation Wind Pressure Humidity
    00:00 +19°C° 0 mm 3 mps 761 mmHg 66%
    01:00 +18°C° 0 mm 3 mps 760 mmHg 67%
    02:00 +18°C° 0 mm 3 mps 760 mmHg 66%
    03:00 +18°C° 0 mm 4 mps 760 mmHg 65%
    04:00 +17°C° 0 mm 4 mps 760 mmHg 64%
    05:00 +19°C° 0 mm 4 mps 760 mmHg 60%
    06:00 +20°C° 0 mm 4 mps 760 mmHg 56%
    07:00 +22°C° 0 mm 4 mps 760 mmHg 53%
    08:00 +26°C° 0 mm 4 mps 759 mmHg 46%
    09:00 +28°C° 0 mm 4 mps 759 mmHg 39%
    10:00 +32°C° 0 mm 4 mps 759 mmHg 32%
    11:00 +33°C° 0 mm 4 mps 759 mmHg 29%
    12:00 +34°C° 0 mm 4 mps 758 mmHg 27%
    13:00 +35°C° 0 mm 5 mps 757 mmHg 24%
    14:00 +35°C° 0 mm 5 mps 757 mmHg 26%
    15:00 +34°C° 0 mm 5 mps 756 mmHg 28%
    16:00 +33°C° 0 mm 6 mps 756 mmHg 30%
    17:00 +30°C° 0 mm 6 mps 756 mmHg 35%
    18:00 +28°C° 0 mm 5 mps 756 mmHg 39%
    19:00 +26°C° 0 mm 5 mps 756 mmHg 44%
    20:00 +25°C° 0 mm 4 mps 756 mmHg 46%
    21:00 +23°C° 0 mm 4 mps 756 mmHg 48%
    22:00 +23°C° 0 mm 4 mps 756 mmHg 50%
    23:00 +22°C° 0 mm 3 mps 755 mmHg 51%

    26 October, Saturday

    Time Temperature Precipitation Wind Pressure Humidity
    00:00 +21°C° 0 mm 3 mps 755 mmHg 51%
    01:00 +20°C° 0 mm 3 mps 754 mmHg 51%
    02:00 +20°C° 0 mm 3 mps 754 mmHg 50%
    03:00 +20°C° 0 mm 4 mps 754 mmHg 49%
    04:00 +20°C° 0 mm 4 mps 753 mmHg 49%
    05:00 +21°C° 0 mm 4 mps 754 mmHg 47%
    06:00 +23°C° 0 mm 5 mps 754 mmHg 45%
    07:00 +25°C° 0 mm 5 mps 754 mmHg 43%
    08:00 +27°C° 0 mm 6 mps 754 mmHg 38%
    09:00 +29°C° 0 mm 8 mps 753 mmHg 32%
    10:00 +33°C° 0 mm 9 mps 753 mmHg 27%
    11:00 +34°C° 0 mm 8 mps 753 mmHg 25%
    12:00 +35°C° 0 mm 8 mps 752 mmHg 23%
    13:00 +36°C° 0 mm 7 mps 752 mmHg 21%
    14:00 +35°C° 0 mm 7 mps 752 mmHg 25%
    15:00 +34°C° 0 mm 6 mps 752 mmHg 29%
    16:00 +32°C° 0 mm 5 mps 752 mmHg 32%
    17:00 +29°C° 0 mm 4 mps 753 mmHg 35%
    18:00 +26°C° 0 mm 4 mps 754 mmHg 38%
    19:00 +23°C° 0 mm 4 mps 755 mmHg 41%
    20:00 +21°C° 0 mm 3 mps 756 mmHg 46%
    21:00 +20°C° 0 mm 3 mps 757 mmHg 51%
    22:00 +18°C° 0 mm 3 mps 758 mmHg 56%
    23:00 +17°C° 0 mm 3 mps 759 mmHg 53%

    27 October, Sunday

    Time Temperature Precipitation Wind Pressure Humidity
    00:00 +16°C° 0 mm 2 mps 759 mmHg 50%
    01:00 +15°C° 0 mm 2 mps 759 mmHg 47%
    02:00 +14°C° 0 mm 2 mps 759 mmHg 48%
    03:00 +12°C° 0 mm 3 mps 760 mmHg 49%
    04:00 +11°C° 0 mm 3 mps 760 mmHg 50%
    05:00 +13°C° 0 mm 3 mps 760 mmHg 48%
    06:00 +14°C° 0 mm 3 mps 761 mmHg 45%
    07:00 +17°C° 0 mm 2 mps 761 mmHg 43%
    08:00 +19°C° 0 mm 2 mps 761 mmHg 37%
    09:00 +21°C° 0 mm 2 mps 761 mmHg 32%
    10:00 +25°C° 0 mm 2 mps 760 mmHg 26%
    11:00 +25°C° 0 mm 2 mps 760 mmHg 26%
    12:00 +25°C° 0 mm 3 mps 760 mmHg 26%
    13:00 +26°C° 0 mm 3 mps 760 mmHg 26%
    14:00 +25°C° 0 mm 4 mps 759 mmHg 31%
    15:00 +22°C° 0 mm 4 mps 759 mmHg 36%
    16:00 +21°C° 0 mm 4 mps 758 mmHg 41%
    17:00 +20°C° 0 mm 4 mps 759 mmHg 48%
    18:00 +18°C° 0 mm 4 mps 760 mmHg 56%
    19:00 +15°C° 0 mm 4 mps 761 mmHg 63%
    20:00 +16°C° 0 mm 3 mps 761 mmHg 66%
    21:00 +14°C° 0 mm 3 mps 762 mmHg 69%
    22:00 +15°C° 0 mm 2 mps 762 mmHg 72%
    23:00 +14°C° 0 mm 2 mps 762 mmHg 75%

    28 October, Monday

    Time Temperature Precipitation Wind Pressure Humidity
    00:00 +14°C° 0 mm 2 mps 762 mmHg 78%
    01:00 +13°C° 0 mm 2 mps 762 mmHg 81%
    02:00 +13°C° 0 mm 2 mps 762 mmHg 83%
    03:00 +12°C° 0 mm 2 mps 762 mmHg 85%
    04:00 +12°C° 0 mm 1 mps 762 mmHg 88%
    05:00 +13°C° 0 mm 2 mps 763 mmHg 82%
    06:00 +15°C° 0 mm 2 mps 763 mmHg 75%
    07:00 +16°C° 0 mm 2 mps 764 mmHg 69%
    08:00 +18°C° 0 mm 3 mps 764 mmHg 64%
    09:00 +20°C° 0 mm 3 mps 763 mmHg 60%
    10:00 +24°C° 0 mm 3 mps 763 mmHg 55%
    11:00 +23°C° 0 mm 4 mps 763 mmHg 56%
    12:00 +23°C° 0 mm 5 mps 763 mmHg 57%
    13:00 +23°C° 0 mm 6 mps 763 mmHg 58%
    14:00 +22°C° 0 mm 6 mps 763 mmHg 61%
    15:00 +21°C° 0 mm 6 mps 764 mmHg 63%
    16:00 +21°C° 0 mm 7 mps 764 mmHg 65%
    17:00 +20°C° 0 mm 6 mps 765 mmHg 69%
    18:00 +19°C° 0 mm 6 mps 765 mmHg 73%
    19:00 +17°C° 0 mm 5 mps 766 mmHg 76%
    20:00 +17°C° 0.1 mm 5 mps 767 mmHg 76%
    21:00 +17°C° 0.1 mm 5 mps 767 mmHg 76%
    22:00 +16°C° 0.1 mm 5 mps 768 mmHg 76%
    23:00 +16°C° 0 mm 5 mps 767 mmHg 79%

    29 October, Tuesday

    Time Temperature Precipitation Wind Pressure Humidity
    00:00 +15°C° 0 mm 4 mps 767 mmHg 82%
    01:00 +14°C° 0 mm 3 mps 767 mmHg 84%
    02:00 +14°C° 0 mm 3 mps 767 mmHg 86%
    03:00 +13°C° 0 mm 3 mps 766 mmHg 88%
    04:00 +14°C° 0 mm 2 mps 766 mmHg 90%
    05:00 +15°C° 0 mm 2 mps 767 mmHg 83%
    06:00 +17°C° 0 mm 3 mps 767 mmHg 75%
    07:00 +19°C° 0 mm 3 mps 767 mmHg 67%
    08:00 +19°C° 0 mm 3 mps 767 mmHg 65%
    09:00 +20°C° 0 mm 3 mps 767 mmHg 62%
    10:00 +21°C° 0 mm 4 mps 767 mmHg 60%
    11:00 +22°C° 0 mm 4 mps 766 mmHg 59%
    12:00 +22°C° 0 mm 4 mps 766 mmHg 58%
    13:00 +23°C° 0 mm 5 mps 766 mmHg 56%
    14:00 +23°C° 0 mm 5 mps 765 mmHg 58%
    15:00 +22°C° 0 mm 6 mps 765 mmHg 59%
    16:00 +22°C° 0 mm 6 mps 765 mmHg 60%
    17:00 +21°C° 0 mm 6 mps 765 mmHg 66%
    18:00 +19°C° 0 mm 6 mps 765 mmHg 71%
    19:00 +17°C° 0 mm 6 mps 766 mmHg 77%
    20:00 +17°C° 0 mm 6 mps 766 mmHg 79%
    21:00 +16°C° 0 mm 5 mps 766 mmHg 81%
    22:00 +16°C° 0 mm 5 mps 766 mmHg 83%
    23:00 +15°C° 0 mm 5 mps 766 mmHg 86%
    Show more